Overview Statistics Trail Chart Weather Telemetry Raw packets
 

This is the latest recevied weather packets stored in our database for station/object NW5W-12. If no packets are shown the sender has not sent any weather packets the latest 10 day(s).

<< 87 88 89 90 91 92 93 >>
Time Temp. Humidity Pressure Rain* Wind** Luminosity Snow
1788060240 14.44° C 81% 1019.1 hPa 7.62 mm - - -
1788059940 13.89° C 80% 1018.8 hPa 7.62 mm - - -
1788059640 13.89° C 78% 1018.6 hPa 7.62 mm - - -
1788059340 13.89° C 77% 1018.4 hPa 7.62 mm - - -
1788059040 13.89° C 72% 1018.2 hPa 7.62 mm - - -
1788058739 13.33° C 77% 1018.2 hPa 7.62 mm - - -
1788058440 13.33° C 76% 1018.2 hPa 7.62 mm - - -
1788058140 13.33° C 78% 1018.1 hPa 7.62 mm - - -
1788057839 13.33° C 75% 1018 hPa 7.62 mm - - -
1788057540 12.78° C 77% 1018 hPa 7.62 mm - - -
1788057240 12.78° C 80% 1018 hPa 7.62 mm - - -
1788056940 13.33° C 83% 1018.1 hPa 7.62 mm - - -
1788056640 13.89° C 82% 1018.1 hPa 7.62 mm - - -
1788056339 14.44° C 77% 1018 hPa 7.62 mm - - -
1788056039 14.44° C 73% 1017.9 hPa 7.62 mm - - -
1788055740 13.89° C 81% 1018.1 hPa 7.62 mm - - -
1788055440 13.89° C 87% 1018.2 hPa 7.62 mm - - -
1788055140 13.89° C 86% 1018.7 hPa 7.62 mm - - -
1788054840 13.89° C 84% 1019.3 hPa 7.62 mm - - -
1788054540 13.89° C 88% 1019.6 hPa 7.62 mm - - -
1788054239 13.89° C 90% 1019.8 hPa 7.62 mm - - -
1788053939 13.89° C 89% 1020 hPa 7.87 mm - - -
1788053639 14.44° C 87% 1020.3 hPa 7.37 mm - - -
1788053340 15° C 82% 1020.5 hPa 7.37 mm - - -
1788053039 15° C 80% 1020.9 hPa 8.38 mm - - -

* Rain since midnight (hover to see other rain measurements)
** Current wind speed in m/s (hover to see current wind gust speed)